Location: Oak Glen
(34.0495°N, 116.9470°E)
Time: 04:09:08
(UTC-08:00)

Hubble Space Telescope - Pass Details

Date: 07 October 2017
Orbit: 537 x 541 km, 28.5° (Epoch: 16 December)

Event Time Altitude Azimuth Distance (km) Brightness Sun altitude
Exits shadow 13:44:43 32° 211° (SSW) 932 1.6 -18.8°
Maximum altitude 13:45:30 35° 186° (S) 874 1.7 -18.6°
Drops below altitude 10° 13:49:17 10° 120° (ESE) 1,785 4.2 -17.9°
Sets 13:51:41 0° 111° (ESE) 2,675 5.5 -17.4°
